Total_Precipitation_Accumulation
0.14 0.13 0.18 0.26 0.21 0.13 0.12 0.06 0.02 0.02 0.02 0.02 0.02 0.02 0.03 0.02 0.02 0.02 0.02 0.02 0.02 0.04 0.03 0.02 0.05 0.05 0.04 0.10 0.06 0.01 0.00 0.00 0.00 0.01 0.01 0.00 0.00 0.00 0.00 0.00 0.00 0.03 0.10
0.17 0.24 0.38 0.45 0.36 0.28 0.23 0.12 0.07 0.05 0.04 0.06 0.05 0.05 0.08 0.07 0.04 0.04 0.03 0.03 0.04 0.03 0.03 0.04 0.06 0.04 0.05 0.11 0.06 0.01 0.01 0.04 0.04 0.01 0.00 0.00 0.00 0.01 0.00 0.00 0.00 0.02 0.05
0.07 0.14 0.29 0.44 0.54 0.53 0.44 0.31 0.25 0.21 0.16 0.16 0.13 0.09 0.10 0.10 0.09 0.09 0.04 0.02 0.04 0.05 0.04 0.04 0.08 0.04 0.04 0.07 0.08 0.04 0.05 0.10 0.07 0.02 0.00 0.00 0.01 0.01 0.00 0.00 0.00 0.01 0.02
0.05 0.11 0.19 0.32 0.51 0.66 0.70 0.64 0.54 0.46 0.35 0.30 0.25 0.17 0.12 0.07 0.06 0.08 0.05 0.04 0.08 0.10 0.08 0.04 0.03 0.01 0.02 0.02 0.08 0.12 0.12 0.09 0.03 0.02 0.03 0.03 0.02 0.01 0.00 0.00 0.00 0.01 0.03
0.10 0.12 0.18 0.28 0.35 0.44 0.55 0.63 0.57 0.46 0.33 0.26 0.21 0.13 0.07 0.03 0.01 0.03 0.03 0.05 0.12 0.10 0.08 0.05 0.02 0.01 0.04 0.06 0.11 0.14 0.12 0.06 0.01 0.01 0.02 0.01 0.00 0.01 0.01 0.01 0.01 0.00 0.01
0.20 0.20 0.26 0.33 0.34 0.33 0.34 0.38 0.39 0.31 0.22 0.16 0.11 0.07 0.03 0.02 0.02 0.04 0.03 0.06 0.06 0.03 0.03 0.04 0.05 0.04 0.06 0.07 0.10 0.13 0.10 0.04 0.03 0.02 0.01 0.00 0.00 0.01 0.01 0.01 0.01 0.01 0.00
0.35 0.39 0.42 0.41 0.41 0.36 0.32 0.34 0.31 0.21 0.12 0.06 0.02 0.02 0.01 0.01 0.02 0.03 0.02 0.02 0.03 0.03 0.04 0.07 0.06 0.04 0.02 0.04 0.06 0.06 0.07 0.06 0.08 0.06 0.02 0.01 0.01 0.03 0.04 0.01 0.01 0.00 0.00
0.37 0.45 0.48 0.34 0.26 0.22 0.20 0.20 0.16 0.08 0.03 0.01 0.01 0.01 0.00 0.00 0.00 0.01 0.01 0.02 0.03 0.04 0.03 0.02 0.01 0.01 0.00 0.03 0.09 0.15 0.12 0.16 0.17 0.16 0.07 0.05 0.06 0.04 0.05 0.05 0.04 0.04 0.02
0.25 0.24 0.19 0.18 0.17 0.16 0.12 0.08 0.05 0.02 0.02 0.02 0.02 0.01 0.01 0.01 0.00 0.00 0.01 0.01 0.01 0.01 0.00 0.00 0.00 0.00 0.01 0.02 0.06 0.17 0.14 0.14 0.20 0.30 0.20 0.09 0.09 0.07 0.05 0.07 0.07 0.05 0.07
0.25 0.22 0.18 0.15 0.13 0.09 0.05 0.02 0.03 0.03 0.02 0.02 0.01 0.01 0.00 0.01 0.00 0.00 0.00 0.00 0.00 0.00 0.00 0.00 0.00 0.00 0.01 0.03 0.06 0.14 0.22 0.18 0.19 0.31 0.26 0.16 0.11 0.10 0.06 0.06 0.06 0.11 0.15
0.13 0.11 0.08 0.06 0.07 0.13 0.13 0.06 0.03 0.02 0.01 0.00 0.00 0.00 0.00 0.00 0.00 0.00 0.00 0.00 0.00 0.00 0.00 0.00 0.00 0.00 0.01 0.01 0.02 0.06 0.15 0.18 0.15 0.21 0.18 0.15 0.10 0.08 0.06 0.05 0.04 0.15 0.22
0.04 0.03 0.03 0.02 0.04 0.05 0.05 0.03 0.01 0.01 0.00 0.00 0.00 0.00 0.00 0.00 0.00 0.00 0.00 0.00 0.00 0.00 0.00 0.00 0.00 0.00 0.00 0.01 0.01 0.01 0.04 0.09 0.14 0.19 0.23 0.23 0.23 0.18 0.08 0.05 0.04 0.10 0.17
0.01 0.00 0.00 0.01 0.01 0.03 0.04 0.03 0.01 0.01 0.00 0.00 0.00 0.00 0.00 0.00 0.00 0.00 0.00 0.00 0.00 0.00 0.00 0.00 0.00 0.00 0.00 0.00 0.00 0.00 0.01 0.05 0.08 0.17 0.24 0.22 0.17 0.12 0.06 0.06 0.05 0.04 0.06
0.00 0.00 0.00 0.00 0.01 0.03 0.05 0.05 0.03 0.02 0.01 0.00 0.00 0.00 0.00 0.00 0.00 0.00 0.00 0.00 0.00 0.00 0.00 0.00 0.00 0.00 0.00 0.00 0.00 0.00 0.00 0.01 0.02 0.06 0.10 0.13 0.11 0.09 0.05 0.03 0.04 0.04 0.04
0.00 0.00 0.00 0.00 0.01 0.03 0.06 0.09 0.07 0.03 0.01 0.01 0.00 0.00 0.00 0.00 0.00 0.00 0.00 0.00 0.00 0.00 0.00 0.00 0.00 0.00 0.00 0.00 0.00 0.00 0.00 0.00 0.01 0.01 0.01 0.02 0.02 0.02 0.02 0.03 0.04 0.06 0.06
0.00 0.00 0.00 0.00 0.00 0.00 0.01 0.04 0.05 0.04 0.02 0.01 0.01 0.01 0.01 0.00 0.00 0.00 0.00 0.00 0.00 0.00 0.00 0.00 0.00 0.00 0.00 0.00 0.00 0.00 0.00 0.00 0.00 0.00 0.00 0.00 0.00 0.00 0.01 0.01 0.02 0.02 0.03
0.00 0.00 0.00 0.00 0.00 0.00 0.00 0.01 0.02 0.02 0.02 0.02 0.02 0.02 0.02 0.01 0.01 0.01 0.01 0.00 0.00 0.00 0.00 0.00 0.00 0.00 0.00 0.00 0.00 0.00 0.00 0.00 0.00 0.00 0.00 0.00 0.00 0.00 0.00 0.02 0.05 0.04 0.02
0.00 0.00 0.01 0.01 0.00 0.00 0.00 0.00 0.01 0.02 0.02 0.04 0.07 0.08 0.07 0.04 0.03 0.03 0.02 0.01 0.01 0.00 0.00 0.00 0.00 0.00 0.00 0.00 0.00 0.00 0.00 0.00 0.00 0.00 0.00 0.00 0.00 0.00 0.00 0.00 0.01 0.02 0.01
0.02 0.01 0.01 0.02 0.02 0.01 0.00 0.00 0.00 0.01 0.03 0.05 0.08 0.12 0.12 0.06 0.03 0.03 0.01 0.01 0.01 0.01 0.00 0.00 0.00 0.00 0.00 0.00 0.00 0.00 0.00 0.00 0.00 0.00 0.00 0.00 0.00 0.00 0.00 0.00 0.00 0.00 0.00
0.06 0.05 0.03 0.04 0.05 0.02 0.00 0.00 0.00 0.01 0.03 0.05 0.08 0.11 0.10 0.06 0.02 0.01 0.00 0.00 0.00 0.00 0.00 0.00 0.00 0.00 0.00 0.00 0.00 0.00 0.00 0.00 0.00 0.00 0.00 0.00 0.00 0.00 0.00 0.00 0.00 0.00 0.00
0.05 0.07 0.07 0.09 0.07 0.04 0.02 0.02 0.02 0.03 0.05 0.07 0.06 0.09 0.10 0.04 0.01 0.00 0.00 0.00 0.00 0.00 0.00 0.00 0.00 0.00 0.00 0.00 0.00 0.00 0.00 0.00 0.00 0.00 0.00 0.00 0.00 0.00 0.00 0.00 0.00 0.00 0.00
0.03 0.09 0.13 0.13 0.10 0.09 0.10 0.09 0.08 0.08 0.08 0.07 0.06 0.06 0.05 0.02 0.02 0.02 0.01 0.00 0.00 0.00 0.00 0.00 0.00 0.00 0.00 0.00 0.00 0.00 0.00 0.00 0.00 0.00 0.00 0.00 0.00 0.00 0.00 0.00 0.00 0.00 0.00
0.04 0.06 0.09 0.08 0.08 0.09 0.09 0.12 0.16 0.11 0.07 0.05 0.05 0.04 0.03 0.02 0.02 0.02 0.03 0.02 0.01 0.01 0.01 0.01 0.00 0.00 0.00 0.00 0.00 0.00 0.00 0.00 0.00 0.00 0.00 0.00 0.00 0.00 0.00 0.00 0.00 0.00 0.00
0.01 0.01 0.01 0.01 0.02 0.03 0.05 0.07 0.12 0.10 0.05 0.04 0.06 0.07 0.04 0.02 0.02 0.01 0.01 0.03 0.04 0.04 0.05 0.04 0.02 0.01 0.01 0.01 0.00 0.00 0.00 0.00 0.00 0.00 0.00 0.00 0.00 0.00 0.00 0.00 0.00 0.00 0.00
0.00 0.00 0.00 0.00 0.01 0.02 0.02 0.03 0.04 0.06 0.06 0.04 0.09 0.14 0.10 0.05 0.03 0.02 0.01 0.02 0.04 0.06 0.07 0.07 0.04 0.01 0.01 0.02 0.01 0.00 0.00 0.00 0.00 0.00 0.00 0.00 0.00 0.00 0.00 0.00 0.00 0.00 0.00
0.00 0.00 0.00 0.00 0.00 0.00 0.01 0.03 0.04 0.05 0.07 0.07 0.06 0.07 0.07 0.07 0.05 0.02 0.01 0.01 0.01 0.01 0.02 0.03 0.03 0.02 0.01 0.01 0.00 0.00 0.00 0.00 0.00 0.00 0.00 0.00 0.00 0.00 0.00 0.00 0.00 0.00 0.00